Weather History for KFSI - March, 2014

Change the Weather History Date:

Monday, March 31, 2014

  Actual Average Record
Temperature  
Mean Temperature 70 °F -  
Max Temperature 85 °F 67 °F 95 °F (1974)
Min Temperature 56 °F 42 °F 24 °F (1987)
Cooling Degree Days 6    
Growing Degree Days 20 (Base 50)    
Moisture  
Dew Point 40 °F    
Average Humidity 43    
Maximum Humidity 75    
Minimum Humidity 10    
Precipitation  
Precipitation 0.00 in - - ()
Sea Level Pressure  
Sea Level Pressure 29.78 in    
Wind  
Wind Speed 14 mph (SSW)    
Max Wind Speed 20 mph    
Max Gust Speed 24 mph    
Visibility 10 miles    
Events      
Averages and records for this station are not official NWS values.
T = Trace of Precipitation, MM = Missing Value Source: NWS Daily Summary

Daily Weather History Graph

Daily Weather History Graph

Search for Another Location

Airport or City:

Trip Planner

Search our weather history database for the weather conditions in past years. The results will help you decide how hot, cold, wet, or windy it might be!

Date:

Astronomy

Mar. 31, 2014 Rise Set
Actual Time 7:21 AM CDT 7:53 PM CDT
Civil Twilight 6:56 AM CDT 8:19 PM CDT
Nautical Twilight 6:26 AM CDT 8:49 PM CDT
Astronomical Twilight 5:56 AM CDT 9:19 PM CDT
Moon 7:48 AM CDT (3/31) 9:10 PM CDT (3/31)
Length of Visible Light 13h 22m
Length of Day
12h 32m
New Moon, 1% of the Moon is Illuminated
Mar 31
New Moon
Apr 7
First Quarter
Apr 15
Full
Apr 22
Last Quarter
Apr 29
New

Hourly Weather History & Observations

Time (CDT) Temp. Dew Point Humidity Pressure Visibility Wind Dir Wind Speed Gust Speed Precip Events Conditions
12:58 AM 62.8 °F 45.1 °F 53% 29.81 in 10.0 mi South 16.1 mph - N/A   Clear
1:58 AM 61.7 °F 46.9 °F 58% 29.79 in 10.0 mi South 13.8 mph - N/A   Clear
2:58 AM 60.8 °F 48.0 °F 63% 29.78 in 10.0 mi South 15.0 mph - N/A   Clear
3:58 AM 61.0 °F 48.4 °F 63% 29.76 in 10.0 mi South 16.1 mph 24.2 mph N/A   Clear
4:58 AM 59.9 °F 48.2 °F 65% 29.76 in 10.0 mi South 15.0 mph - N/A   Clear
5:58 AM 58.8 °F 48.0 °F 67% 29.77 in 10.0 mi South 15.0 mph - N/A   Scattered Clouds
6:58 AM 57.6 °F 48.2 °F 71% 29.78 in 10.0 mi South 17.3 mph - N/A   Clear
7:58 AM 56.7 °F 48.9 °F 75% 29.78 in 10.0 mi South 15.0 mph - N/A   Clear
8:58 AM 58.3 °F 50.4 °F 75% 29.78 in 10.0 mi South 19.6 mph 24.2 mph N/A   Overcast
9:58 AM 61.5 °F 52.2 °F 71% 29.80 in 10.0 mi South 15.0 mph - N/A   Partly Cloudy
10:58 AM 67.3 °F 54.0 °F 62% 29.81 in 10.0 mi SSW 13.8 mph - N/A   Mostly Cloudy
11:58 AM 72.3 °F 54.3 °F 53% 29.79 in 10.0 mi SSW 13.8 mph 20.7 mph N/A   Clear
12:58 PM 77.2 °F 49.5 °F 38% 29.77 in 10.0 mi WSW 9.2 mph - N/A   Clear
1:58 PM 82.0 °F 39.9 °F 22% 29.75 in 10.0 mi West 11.5 mph - N/A   Clear
2:58 PM 83.5 °F 32.9 °F 16% 29.74 in 10.0 mi West 10.4 mph 18.4 mph N/A   Clear
3:58 PM 84.2 °F 27.0 °F 12% 29.73 in 10.0 mi SW 8.1 mph - N/A   Clear
4:58 PM 85.3 °F 21.9 °F 10% 29.73 in 10.0 mi WNW 12.7 mph - N/A   Clear
5:58 PM 84.7 °F 21.0 °F 10% 29.73 in 10.0 mi NNW 10.4 mph - N/A   Clear
6:58 PM 82.0 °F 18.9 °F 10% 29.74 in 10.0 mi NNE 6.9 mph - N/A   Clear
7:58 PM 73.0 °F 25.9 °F 17% 29.77 in 10.0 mi NNE 10.4 mph - N/A   Clear
8:58 PM 66.4 °F 28.4 °F 24% 29.80 in 10.0 mi NNE 6.9 mph - N/A   Clear
9:58 PM 62.6 °F 25.2 °F 24% 29.84 in 10.0 mi NE 8.1 mph - N/A   Clear
10:58 PM 58.6 °F 29.8 °F 34% 29.85 in 10.0 mi NNE 11.5 mph - N/A   Clear
11:58 PM 61.0 °F 35.4 °F 38% 29.86 in 10.0 mi NE 11.5 mph - N/A   Clear